Home   Weather   Oak Harbor   Past weeks
Flag for USA

Past Weather in Oak Harbor, Washington, USA — Yesterday and Last 2 Weeks

Now
54 °F

Light rain. Mostly cloudy.


Feels Like: 50 °F
Forecast: 58 / 52 °F
Wind: 15 mph from Southeast

Location: Whidbey Island

Current Time: Nov 16, 2019 at 6:24:07 pm

Latest Report: Nov 16, 2019 at 4:56 pm


Visibility: 10 mi

Pressure: 30.22 "Hg

Humidity: 74%

Dew Point: 46 °F

Location of Oak HarborLocation

Past Weather in Oak Harbor — Graph

°F

Oak Harbor Temperature Yesterday

Maximum temperature yesterday: 58 °F (at 12:56 pm)
Minimum temperature yesterday: 48 °F (at 8:56 pm)
Average temperature yesterday: 53 °F

High & Low Weather Summary for the Past Weeks

 TemperatureHumidityPressure
High58 °F (Nov 15, 12:56 pm)97% (Nov 2, 4:56 am)30.46 "Hg (Nov 2, 4:56 am)
Low35 °F (Nov 2, 3:56 am)56% (Nov 2, 2:56 pm)29.95 "Hg (Nov 14, 9:56 pm)
Average48 °F83%30.23 "Hg
* Reported Nov 1 5:56 pm — Nov 16 4:56 pm, Oak Harbor. Weather by CustomWeather, © 2019

Note: Actual official high and low records may vary slightly from our data, if they occured in-between our weather recording intervals... More about our weather records

Advertising

Oak Harbor Weather History for the Previous 24 Hours

Scroll right to see more
 ConditionsComfort  
Time TempWeatherWind HumidityBarometerVisibility
4:56 pm
Sat, Nov 16
54 °FLight rain. Mostly cloudy.15 mph74%30.22 "Hg10 mi
3:56 pm53 °FLight rain. Fog.18 mph77%30.21 "Hg5 mi
2:56 pm55 °FLight rain. Cloudy.17 mph69%30.22 "Hg10 mi
1:56 pm56 °FLight rain. Cloudy.17 mph67%30.21 "Hg10 mi
12:56 pm54 °FLight rain. More clouds than sun.12 mph74%30.25 "Hg10 mi
11:56 am54 °FMore clouds than sun.14 mph74%30.27 "Hg10 mi
10:56 am54 °FMore clouds than sun.15 mph77%30.30 "Hg10 mi
9:56 am53 °FMore clouds than sun.21 mph77%30.29 "Hg10 mi
9:17 am53 °FMore clouds than sun.15 mph77%30.31 "Hg10 mi
8:56 am52 °FMostly cloudy.15 mph80%30.31 "Hg10 mi
7:56 am51 °FMostly cloudy.14 mph80%30.32 "Hg10 mi
6:56 am51 °FMostly cloudy.10 mph80%30.32 "Hg10 mi
5:56 am51 °FMostly cloudy.9 mph83%30.32 "Hg10 mi
4:56 am50 °FPartly cloudy.14 mph83%30.32 "Hg10 mi
3:56 am48 °FPartly cloudy.7 mph86%30.33 "Hg10 mi
2:56 am47 °FPassing clouds.9 mph86%30.33 "Hg8 mi
1:56 am46 °FPassing clouds.7 mph86%30.33 "Hg8 mi
12:56 am47 °FPassing clouds.7 mph86%30.32 "Hg8 mi
11:56 pm
Fri, Nov 15
49 °FPartly cloudy.No wind86%30.31 "Hg10 mi
10:56 pm48 °FPassing clouds.6 mph86%30.29 "Hg10 mi
9:56 pm48 °FPartly cloudy.5 mph86%30.29 "Hg10 mi
8:56 pm48 °FPartly cloudy.6 mph83%30.26 "Hg10 mi
7:56 pm51 °FPartly cloudy.No wind80%30.23 "Hg10 mi
6:56 pm52 °FPartly cloudy.7 mph83%30.22 "Hg10 mi
Weather by CustomWeather, © 2019

See weather overview